Location: Aix-en-Ergny
(50.5839°N, 1.9996°E)
Time: 15:48:02
(UTC+00:00)

SL-16 R/B - Pass Details

Date: 23 October 2019
Orbit: 840 x 850 km, 71.0° (Epoch: 21 November)

Event Time Altitude Azimuth Distance (km) Brightness Sun altitude
Exits shadow 03:11:02 - 154° (SSE) 2,532 4.7 -31.3°
Reaches altitude 10° 03:11:17 10° 152° (SSE) 2,457 4.6 -31.3°
Maximum altitude 03:15:36 23° 102° (ESE) 1,721 4.3 -30.7°
Drops below altitude 10° 03:19:57 10° 52° (NE) 2,477 5.5 -30.0°
Sets 03:22:51 0° 38° (NE) 3,419 6.2 -29.6°
